FENGYUN 1C DEB

Satellite information

Favourite Embed

Satellite Type and Status

DEBRISIN ORBIT

Key statistics

Satellite FENGYUN 1C DEB at a glance.

Uptime

9715

Days in orbit

Revolutions

≈ 12.6

Per day

Orbit

MEO

Medium Earth Orbit

Inclination

99.4

Latest

Satellite identification and parameters

Extended collection of information and parameters for FENGYUN 1C DEB.

Object identification

Identified? True

Debris? True

Object name: FENGYUN 1C DEB

International designator: 1999-025AC

Object number (NORAD): 29738

Object ID (CCSDS): 29738

Country: PEOPLES REPUBLIC OF CHINA (PRC)

Current information (Y/N): Y

RCS size: SMALL

Orbital parameters

Period: 114.191 minutes

Inclination: 99.4093 deg

SMA: 7796.79 km

Apoapsis: 2092.676 km

Periapsis: 744.635 km

RAAN: 154.2625 deg

Eccentricy: 0.08644846

Argument of periapsis: 292.901 deg

Mean anomaly: 58.312 deg

Mean motion: 12.61040412 rev/day

Mean motion (dot): 0.00003009 rev/day2

B* drag term: 0.0039977132 1/REarth

Two-line elements (TLE)

Creation date: Dec. 14, 2025, 3:07 a.m.

Reference frame: TEME

Reference center: EARTH

Epoch: Dec. 13, 2025, 11:15 a.m. UTC

TLE line 0: 0 FENGYUN 1C DEB

TLE line 1: 1 29738U 99025AC 25347.46902899 .00003009 00000-0 39977-2 0 9991

TLE line 2: 2 29738 99.4093 154.2625 0864485 292.9010 58.3120 12.61040412862262

Live tracking on map

Real-time ground track for satellite FENGYUN 1C DEB.

In-orbit conjunctions

A list of the most updated potential collisions computed for object FENGYUN 1C DEB.

Target Orbit TCA Probability of collision Miss distance Type
EXPLORER 25 (INJUN-4) HEO 2025-08-27 17:31:46 0.0001167456 236.0 (m) PAYLOAD
CZ-6A DEB LEO 2024-10-06 10:23:33 0.0004624141 525.0 (m) DEBRIS

Associated space launch

Chinese polar orbiting meteorological satellite

FENGYUN 1C DEB was lifted into orbit during the mission ‘Long March 4B | Feng Yun 1C’, on board a Long March 4B space rocket.

The launch took place on May 10, 1999, 1:33 a.m. from Launch Complex 7.

For more information about the launch, click the button.

Launch to space Long March 4B | Feng Yun 1C
Long March 4B | Feng Yun 1C

Agency: N/A

Status: Launch Successful

Launch date: May 10, 1999, 1:33 a.m. UTC

Rocket: Long March 4B

Launch pad: Launch Complex 7

Location: Taiyuan Satellite Launch Center, People's Republic of China

...

Latest news about this satellite

There are no fresh news available about this satellite. Check back as we update our databases every day.


Newsletter sign-up

Weekly statistics, charts and insights to help you stay on top of the space industry.